Wind_Speed
28 28 27 27 29 30 31 32 32 33 32 32 32 32 32 32 32 31 31 31 30 30 30 31 32 33 33 34 35 36 36 36 37 37 37 38 38 39 39 40 40 41 41
31 30 29 29 29 31 32 33 34 35 35 34 34 34 34 34 34 33 33 33 33 32 33 33 34 35 36 37 38 38 39 39 40 40 41 41 42 43 43 43 44 44 44
33 32 31 31 31 32 33 35 36 36 36 36 36 36 36 36 36 35 34 34 34 35 35 36 37 37 38 40 41 42 42 43 43 44 44 45 46 47 48 48 49 49 49
35 35 34 33 33 34 35 36 37 37 38 37 37 37 37 38 37 37 36 36 36 37 38 39 40 40 42 43 44 45 46 46 47 47 48 49 50 51 52 52 53 54 54
37 37 36 35 35 36 37 38 38 38 39 39 39 39 39 39 39 39 39 39 39 40 41 42 43 44 45 46 47 48 49 49 50 51 52 52 53 54 55 56 57 57 58
39 39 39 38 37 37 38 39 40 40 39 40 40 40 41 41 41 42 42 42 43 44 45 45 46 47 48 49 50 51 52 53 53 54 55 55 56 57 57 58 59 60 61
39 39 39 39 39 39 39 40 40 41 41 41 41 42 43 43 44 45 45 46 46 46 47 48 49 50 52 52 53 54 55 56 57 57 58 58 59 59 60 60 61 62 64
39 39 39 40 40 39 40 40 41 41 42 43 43 44 45 45 45 46 47 48 49 49 50 51 52 53 55 55 56 58 59 59 60 61 61 61 61 62 63 64 65 66 67
40 40 40 41 40 40 41 41 41 41 42 44 45 46 47 48 48 47 48 49 50 51 52 53 55 57 58 59 60 61 62 63 63 64 64 65 65 66 67 68 69 70 71
41 41 41 41 41 41 42 42 42 42 43 44 46 48 49 50 50 50 50 51 51 52 53 55 56 58 61 63 64 65 66 66 67 67 68 68 69 70 71 72 73 74 75
42 42 42 42 42 42 42 42 43 43 44 45 47 48 49 51 52 52 52 52 53 54 55 57 58 60 62 64 65 67 68 69 70 71 71 72 73 74 75 76 77 79 80
42 42 42 42 42 42 42 43 43 44 45 47 48 49 50 51 53 53 54 54 54 55 57 59 61 63 64 65 66 68 69 71 72 73 74 75 77 78 80 81 83 86 87
42 41 42 42 42 42 42 43 44 45 47 48 49 50 51 52 54 55 56 57 57 57 59 61 63 65 66 67 68 70 71 72 73 75 77 79 81 84 87 89 92 94 96
42 42 41 41 41 41 41 43 44 46 48 49 50 51 52 53 55 56 58 60 61 61 62 63 65 67 68 70 71 72 73 75 77 80 83 86 89 92 94 96 98 99 100
42 41 41 41 41 41 42 44 45 47 48 50 51 52 53 54 56 58 60 62 65 66 65 65 67 68 70 72 73 75 77 80 83 87 91 94 96 98 98 98 96 93 91
41 40 40 40 40 41 43 44 46 47 49 50 51 52 54 56 58 60 62 65 67 69 70 69 70 72 73 75 77 80 84 88 91 95 97 98 98 96 92 87 81 76 71
40 40 40 40 41 42 43 45 47 48 50 51 52 54 56 58 60 62 65 67 68 70 71 71 73 75 78 80 83 87 91 94 96 97 97 95 91 84 77 71 64 58 55
39 39 39 40 41 43 44 46 48 49 51 52 54 56 58 60 63 65 67 68 69 71 74 74 75 79 82 86 89 92 94 95 94 92 88 83 76 69 62 55 50 47 45
38 39 40 41 42 44 46 47 49 50 52 54 56 58 60 63 65 67 68 69 71 73 76 78 80 84 88 92 93 93 92 90 86 80 74 68 61 55 50 46 44 42 40
38 39 40 42 43 45 47 48 50 51 53 55 58 60 63 64 66 67 69 71 73 76 79 83 86 89 91 93 93 90 85 79 72 67 61 56 50 47 45 43 41 39 37
38 39 41 42 44 46 48 49 50 52 55 57 60 62 64 65 67 69 71 73 76 80 84 88 90 91 91 91 87 82 75 66 59 56 50 47 45 43 42 41 39 37 36
37 39 41 43 44 46 47 49 51 54 56 59 61 63 65 66 68 70 73 77 82 86 90 92 92 91 89 85 78 69 61 54 47 47 44 41 42 40 39 38 38 36 35
37 40 42 44 45 46 48 50 53 55 58 60 62 63 65 67 70 73 77 82 87 91 93 92 90 86 80 72 64 57 52 47 43 43 42 38 39 38 38 38 37 35 34
38 40 41 43 44 47 49 52 54 56 59 61 62 64 66 70 74 78 82 86 89 91 90 87 82 74 65 58 52 48 45 42 39 41 42 38 36 35 36 37 37 34 32
37 39 40 43 45 48 50 53 55 57 58 60 63 66 70 74 78 83 87 89 88 86 81 74 66 59 52 49 46 44 42 40 38 39 41 38 36 34 34 36 35 33 31
36 39 41 44 46 49 51 54 55 57 58 61 65 70 74 78 83 88 89 87 81 73 65 57 52 49 46 44 44 43 43 41 39 37 38 36 35 34 31 33 34 32 29
Wind_Direction
273 274 273 270 267 265 265 266 266 267 269 272 276 280 282 283 285 285 285 284 284 285 286 287 288 289 290 291 290 290 290 289 288 287 286 285 284 282 280 278 276 274 272
274 276 276 274 272 269 268 268 268 269 270 272 275 279 281 283 284 285 285 284 284 285 287 288 289 290 291 292 293 292 291 290 289 288 287 286 285 284 282 280 278 276 274
273 276 277 276 275 273 271 270 270 271 272 273 276 278 281 283 285 286 286 285 286 287 288 289 290 291 292 293 293 293 292 291 289 288 287 286 285 283 282 280 279 277 276
272 274 276 276 276 275 274 273 271 272 273 275 276 278 281 284 286 288 288 287 287 288 289 290 291 292 293 293 294 293 292 290 289 287 286 285 284 282 281 280 278 277 275
272 274 276 277 277 276 276 275 274 273 274 276 277 279 281 283 286 288 288 288 288 289 290 291 292 293 293 293 293 293 291 290 288 287 286 285 283 282 281 279 277 276 275
273 275 276 278 278 278 277 276 275 274 274 276 278 279 281 284 286 288 289 289 290 290 291 292 292 293 293 293 293 293 292 290 289 288 287 286 284 283 281 279 278 276 275
273 275 277 278 279 279 278 277 277 276 275 277 279 281 283 285 287 288 289 290 290 291 292 293 293 293 294 294 294 293 292 292 291 290 289 287 286 284 282 280 278 277 275
273 275 278 279 279 279 280 279 279 278 278 279 281 282 284 286 288 290 290 291 291 292 293 293 294 294 295 295 294 294 294 293 292 291 290 288 287 285 283 281 280 278 276
272 275 278 280 280 280 280 280 280 279 280 281 282 285 286 287 288 289 290 291 292 294 294 295 296 296 296 296 296 296 296 295 294 292 291 290 288 287 285 283 281 280 278
273 275 278 280 280 280 281 282 282 281 282 283 285 286 288 289 290 290 291 291 292 293 294 295 296 297 298 298 298 298 297 296 295 294 293 291 290 288 286 285 283 281 279
271 274 277 279 280 280 281 282 283 283 284 285 286 288 289 290 291 291 292 293 294 295 296 297 297 297 297 297 298 297 297 296 295 294 293 291 289 288 286 285 283 281 280
269 273 276 278 280 280 282 283 284 285 286 288 288 289 290 291 291 292 293 293 295 296 297 298 298 298 298 297 297 296 295 295 294 293 291 290 289 287 286 285 283 282 280
268 271 274 277 279 281 283 285 286 287 289 290 290 291 292 292 293 294 295 296 297 298 298 299 299 299 298 298 297 296 295 294 293 292 291 290 289 288 287 285 284 282 281
265 269 273 277 279 281 283 286 288 289 290 291 292 292 293 294 295 296 297 298 298 299 300 300 300 299 299 298 298 297 296 295 294 293 292 291 290 289 288 287 285 283 281
264 268 273 276 280 282 285 287 289 290 291 292 293 293 294 295 297 298 299 299 300 300 301 301 300 300 299 299 298 297 297 296 296 295 295 294 293 292 291 289 287 286 284
263 268 273 277 280 283 286 288 289 291 292 293 294 294 296 297 298 299 300 301 302 302 302 302 302 301 301 300 300 300 299 299 299 298 297 296 295 294 293 292 290 287 285
263 268 273 277 281 285 287 289 290 291 293 294 294 296 297 299 299 300 301 302 302 303 303 303 303 303 303 302 302 302 302 301 300 299 298 297 296 295 293 291 289 287 285
264 269 275 279 282 285 288 289 291 292 293 294 296 297 299 300 301 301 302 303 303 303 304 304 304 304 304 303 303 303 303 302 301 300 299 298 296 295 293 291 288 287 285
266 271 276 280 283 286 288 290 291 293 294 295 297 298 300 301 302 303 303 304 304 305 305 305 306 305 305 304 304 304 304 303 302 300 299 298 297 295 292 290 288 287 286
268 273 278 282 284 287 289 290 292 293 295 297 298 300 301 302 303 304 304 305 305 305 306 306 307 306 306 305 305 305 304 303 301 299 298 298 296 295 292 290 289 288 287
271 276 280 283 286 287 289 291 293 294 296 298 300 301 302 303 304 305 305 306 306 306 307 307 307 306 306 305 305 305 304 302 301 298 298 297 295 294 292 291 289 289 288
274 278 281 284 285 287 289 292 294 296 298 299 301 302 303 304 305 306 307 308 308 308 308 307 307 306 306 306 306 305 304 302 299 296 297 296 295 294 291 289 289 289 288
277 280 281 284 286 289 291 293 296 298 300 301 302 303 304 305 306 307 308 309 309 309 308 308 307 307 307 307 306 306 305 303 300 296 295 295 294 293 290 288 288 287 285
277 279 282 285 288 291 293 296 298 300 301 303 304 305 306 307 308 308 309 309 309 308 307 307 308 308 308 308 308 307 305 303 301 299 297 297 293 292 290 288 287 286 284
278 281 285 288 291 293 296 298 300 302 303 305 306 306 307 308 308 309 309 310 309 308 309 309 310 311 311 311 311 310 309 307 304 301 299 299 295 292 291 288 287 285 282
282 285 289 291 294 296 299 301 303 304 305 306 307 308 309 309 310 310 310 310 309 310 310 311 312 313 313 313 313 313 311 309 307 304 300 299 296 292 290 287 286 283 281
Height
5809 5809 5809 5809 5809 5810 5810 5810 5810 5810 5810 5809 5809 5808 5807 5805 5804 5804 5801 5800 5798 5797 5795 5794 5792 5791 5789 5787 5786 5784 5782 5781 5779 5777 5776 5775 5774 5773 5772 5772 5772 5771 5771
5803 5804 5804 5804 5803 5803 5803 5803 5804 5804 5803 5803 5802 5801 5799 5798 5797 5796 5795 5792 5791 5789 5788 5786 5785 5783 5781 5779 5777 5775 5773 5772 5770 5768 5766 5765 5764 5763 5762 5762 5761 5761 5761
5797 5797 5797 5797 5797 5797 5797 5797 5797 5796 5796 5796 5795 5794 5792 5791 5789 5788 5787 5785 5783 5781 5779 5778 5776 5774 5772 5770 5768 5766 5764 5762 5760 5758 5756 5754 5753 5752 5751 5750 5749 5749 5749
5790 5790 5791 5791 5791 5790 5790 5790 5789 5789 5789 5788 5787 5786 5785 5783 5781 5780 5779 5777 5775 5773 5771 5769 5767 5765 5762 5760 5757 5755 5753 5751 5749 5747 5745 5743 5741 5740 5738 5737 5737 5736 5735
5783 5783 5783 5784 5783 5783 5783 5782 5782 5782 5781 5780 5780 5779 5777 5776 5774 5772 5770 5768 5766 5764 5762 5760 5757 5754 5752 5749 5746 5744 5741 5739 5737 5734 5732 5730 5728 5727 5725 5723 5722 5721 5721
5777 5776 5776 5776 5776 5776 5775 5774 5774 5773 5773 5772 5771 5770 5769 5767 5765 5763 5761 5759 5756 5754 5751 5749 5746 5743 5740 5737 5734 5731 5728 5726 5723 5721 5718 5716 5714 5712 5710 5708 5706 5705 5704
5769 5769 5769 5769 5768 5768 5767 5766 5765 5765 5764 5763 5762 5761 5760 5758 5756 5753 5751 5749 5746 5744 5740 5737 5734 5731 5728 5725 5721 5718 5715 5711 5708 5705 5703 5700 5698 5695 5693 5691 5689 5688 5686
5762 5761 5761 5761 5761 5760 5759 5758 5758 5756 5755 5754 5753 5752 5750 5749 5746 5743 5740 5737 5734 5732 5729 5725 5721 5718 5714 5711 5707 5703 5700 5696 5693 5689 5686 5683 5680 5677 5675 5673 5671 5669 5667
5754 5754 5754 5753 5753 5752 5751 5750 5749 5748 5747 5745 5743 5742 5740 5738 5736 5734 5730 5727 5723 5719 5715 5711 5707 5703 5699 5695 5691 5687 5683 5679 5675 5671 5667 5664 5660 5657 5654 5652 5649 5647 5646
5746 5746 5746 5745 5745 5744 5743 5742 5740 5739 5738 5736 5734 5731 5729 5726 5723 5722 5719 5715 5712 5708 5703 5699 5694 5689 5683 5678 5674 5669 5664 5660 5656 5652 5647 5643 5639 5636 5632 5629 5626 5624 5622
5738 5738 5738 5737 5737 5736 5735 5733 5732 5730 5728 5726 5724 5721 5718 5715 5711 5709 5707 5703 5699 5694 5690 5685 5680 5675 5670 5664 5658 5653 5647 5642 5637 5632 5627 5623 5618 5614 5610 5606 5602 5599 5596
5730 5730 5730 5729 5728 5727 5726 5724 5722 5721 5718 5716 5713 5710 5707 5704 5700 5696 5694 5691 5687 5683 5677 5670 5665 5659 5654 5648 5642 5636 5630 5624 5618 5613 5607 5601 5596 5591 5586 5581 5577 5572 5568
5722 5722 5722 5721 5720 5719 5717 5715 5713 5711 5709 5706 5703 5699 5695 5691 5687 5683 5679 5675 5673 5669 5663 5657 5649 5643 5637 5631 5625 5618 5612 5605 5599 5592 5586 5579 5573 5567 5561 5555 5549 5542 5536
5713 5713 5713 5713 5712 5710 5708 5706 5704 5701 5699 5695 5692 5688 5684 5679 5675 5670 5665 5660 5656 5653 5648 5642 5633 5626 5619 5612 5606 5599 5592 5584 5577 5570 5562 5554 5546 5538 5531 5523 5515 5507 5500
5704 5705 5705 5704 5703 5702 5700 5697 5695 5692 5688 5685 5681 5676 5672 5667 5662 5656 5651 5645 5639 5635 5632 5626 5617 5609 5601 5594 5586 5578 5570 5562 5553 5543 5534 5524 5515 5505 5496 5487 5478 5469 5462
5696 5696 5696 5696 5694 5693 5690 5688 5685 5681 5678 5674 5669 5665 5660 5655 5649 5643 5637 5630 5622 5616 5611 5606 5597 5589 5581 5572 5564 5555 5546 5536 5525 5513 5502 5491 5481 5471 5461 5452 5444 5437 5431
5688 5688 5688 5687 5686 5684 5681 5678 5675 5671 5667 5662 5658 5653 5647 5641 5635 5629 5622 5615 5607 5598 5593 5588 5578 5568 5559 5550 5541 5530 5519 5508 5496 5483 5471 5460 5450 5441 5433 5426 5420 5415 5410
5680 5680 5680 5679 5677 5674 5671 5668 5664 5660 5655 5651 5645 5640 5634 5628 5621 5614 5606 5598 5590 5581 5573 5568 5560 5549 5538 5526 5517 5506 5493 5480 5467 5455 5443 5433 5424 5417 5411 5406 5402 5398 5394
5672 5672 5671 5670 5667 5665 5661 5657 5653 5649 5644 5639 5633 5627 5620 5613 5606 5598 5590 5582 5573 5564 5554 5545 5538 5527 5515 5501 5491 5480 5467 5454 5440 5429 5420 5412 5404 5399 5394 5390 5387 5383 5381
5664 5663 5662 5661 5658 5655 5651 5647 5642 5637 5632 5626 5620 5613 5606 5599 5591 5583 5574 5565 5555 5546 5535 5524 5515 5504 5491 5477 5464 5454 5445 5431 5419 5407 5401 5394 5389 5384 5380 5376 5373 5370 5368
5656 5655 5653 5651 5648 5644 5640 5636 5631 5626 5620 5613 5606 5599 5591 5583 5575 5566 5557 5547 5537 5526 5515 5504 5493 5480 5468 5454 5442 5430 5420 5412 5401 5390 5387 5380 5376 5372 5367 5363 5360 5358 5355
5647 5646 5644 5642 5638 5634 5629 5625 5620 5614 5607 5600 5593 5585 5576 5568 5559 5550 5540 5528 5516 5504 5492 5480 5469 5456 5444 5430 5419 5409 5400 5394 5388 5378 5374 5370 5364 5360 5356 5352 5349 5346 5344
5639 5637 5635 5632 5628 5623 5618 5613 5608 5601 5594 5586 5578 5570 5561 5552 5542 5533 5522 5510 5496 5480 5467 5455 5444 5432 5420 5409 5400 5393 5384 5378 5372 5365 5361 5360 5354 5349 5344 5340 5337 5335 5333
5631 5628 5625 5621 5617 5613 5607 5601 5595 5588 5581 5572 5564 5555 5546 5536 5525 5514 5504 5492 5477 5461 5447 5434 5422 5411 5401 5391 5384 5378 5371 5366 5361 5352 5347 5346 5343 5339 5334 5329 5325 5323 5322
5622 5619 5615 5611 5607 5602 5596 5589 5583 5575 5567 5559 5549 5539 5529 5519 5508 5497 5485 5472 5458 5442 5426 5413 5402 5393 5385 5378 5371 5365 5359 5354 5350 5343 5335 5333 5330 5327 5324 5318 5314 5312 5310
5613 5609 5605 5601 5596 5590 5584 5577 5570 5562 5555 5546 5536 5524 5513 5501 5489 5475 5462 5449 5437 5423 5411 5399 5389 5381 5374 5367 5360 5353 5347 5342 5337 5332 5326 5322 5317 5314 5314 5309 5304 5302 5300